Pratt, KS

9:51 AM CDT on March 24, 2017 (GMT -0500)
Pratt Industrial

Weather History for KPTT - March, 2014

Change the Weather History Date:

Saturday, March 29, 2014

  Actual Average (KP28) Record (KP28)
Temperature  
Mean Temperature 47 °F -  
Max Temperature 68 °F 61 °F 89 °F (1967)
Min Temperature 26 °F 39 °F 16 °F (1944)
Degree Days  
Heating Degree Days 18    
Moisture  
Dew Point 28 °F    
Average Humidity 57    
Maximum Humidity 100    
Minimum Humidity 17    
Precipitation  
Precipitation 0.00 in - - ()
Sea Level Pressure  
Sea Level Pressure 30.21 in    
Wind  
Wind Speed 9 mph (SW)    
Max Wind Speed 20 mph    
Max Gust Speed 24 mph    
Visibility 8 miles    
Events      
Averages and records for this station are not official NWS values.
T = Trace of Precipitation, MM = Missing Value Source: NWS Daily Summary

Daily Weather History Graph

Daily Weather History Graph

Search for Another Location

Airport or City:

Trip Planner

Search our weather history database for the weather conditions in past years. The results will help you decide how hot, cold, wet, or windy it might be!

Date:

Astronomy

Mar. 29, 2014 Rise Set
Actual Time 7:24 AM CDT 7:55 PM CDT
Civil Twilight 6:58 AM CDT 8:21 PM CDT
Nautical Twilight 6:27 AM CDT 8:52 PM CDT
Astronomical Twilight 5:55 AM CDT 9:24 PM CDT
Moon 6:33 AM CDT (3/29) 7:02 PM CDT (3/29)
Length of Visible Light 13h 23m
Length of Day
12h 30m
Waning Crescent, 2% of the Moon is Illuminated
Mar 29
Waning Crescent
Mar 30
New
Apr 7
First Quarter
Apr 15
Full
Apr 22
Last Quarter

Hourly Weather History & Observations

Time (CDT) Temp. Windchill Dew Point Humidity Pressure Visibility Wind Dir Wind Speed Gust Speed Precip Events Conditions
12:15 AM 37.4 °F 31.4 °F 32.0 °F 81% 30.16 in 10.0 mi West 8.1 mph - N/A   Clear
12:35 AM 35.6 °F 28.6 °F 30.2 °F 81% 30.17 in 10.0 mi West 9.2 mph - N/A   Clear
12:55 AM 35.6 °F 29.2 °F 30.2 °F 81% 30.16 in 10.0 mi West 8.1 mph - N/A   Clear
1:15 AM 41.0 °F - 32.0 °F 70% 30.17 in 10.0 mi Calm Calm - N/A   Clear
1:35 AM 33.8 °F 26.4 °F 28.4 °F 81% 30.18 in 10.0 mi North 9.2 mph - N/A   Clear
1:55 AM 33.8 °F 25.8 °F 30.2 °F 87% 30.18 in 10.0 mi North 10.4 mph - N/A   Clear
2:15 AM 33.8 °F 28.6 °F 30.2 °F 87% 30.19 in 10.0 mi NNW 5.8 mph - N/A   Clear
2:35 AM 33.8 °F 26.4 °F 30.2 °F 87% 30.19 in 10.0 mi NNW 9.2 mph - N/A   Clear
2:55 AM 32.0 °F 24.8 °F 28.4 °F 87% 30.19 in 10.0 mi North 8.1 mph - N/A   Clear
3:15 AM 33.8 °F 26.4 °F 30.2 °F 87% 30.19 in 10.0 mi North 9.2 mph - N/A   Clear
3:35 AM 33.8 °F 24.8 °F 30.2 °F 87% 30.20 in 10.0 mi North 12.7 mph - N/A   Clear
3:55 AM 33.8 °F 25.8 °F 30.2 °F 87% 30.21 in 10.0 mi North 10.4 mph - N/A   Clear
4:15 AM 32.0 °F 23.0 °F 30.2 °F 93% 30.23 in 10.0 mi NW 11.5 mph - N/A   Clear
4:35 AM 32.0 °F 23.6 °F 28.4 °F 87% 30.23 in 10.0 mi NNW 10.4 mph - N/A   Clear
4:55 AM 32.0 °F 22.1 °F 28.4 °F 87% 30.23 in 10.0 mi NNW 13.8 mph - N/A   Clear
5:15 AM 32.0 °F 22.1 °F 28.4 °F 87% 30.23 in 10.0 mi North 13.8 mph - N/A   Clear
5:35 AM 30.2 °F 20.2 °F 28.4 °F 93% 30.25 in 7.0 mi North 12.7 mph - N/A   Clear
5:55 AM 30.2 °F 22.6 °F 28.4 °F 93% 30.26 in 7.0 mi NNW 8.1 mph - N/A   Clear
6:15 AM 30.2 °F 22.6 °F 28.4 °F 93% 30.27 in 5.0 mi North 8.1 mph - N/A   Clear
6:35 AM 28.4 °F 20.4 °F 26.6 °F 93% 30.27 in 5.0 mi NNW 8.1 mph - N/A   Clear
6:55 AM 28.4 °F 22.2 °F 26.6 °F 93% 30.28 in 5.0 mi NNW 5.8 mph - N/A   Clear
7:15 AM 26.6 °F 18.2 °F 26.6 °F 100% 30.29 in 4.0 mi NW 8.1 mph - N/A   Clear
7:35 AM 26.6 °F 18.2 °F 26.6 °F 100% 30.30 in 3.0 mi NW 8.1 mph - N/A   Clear
7:55 AM 28.4 °F 20.4 °F 26.6 °F 93% 30.31 in 2.5 mi NNW 8.1 mph - N/A   Clear
8:15 AM 28.4 °F 20.4 °F 26.6 °F 93% 30.31 in 2.5 mi North 8.1 mph - N/A   Clear
8:35 AM 30.2 °F 23.4 °F 28.4 °F 93% 30.31 in 3.0 mi North 6.9 mph - N/A   Clear
8:55 AM 32.0 °F 24.8 °F 30.2 °F 93% 30.31 in 3.0 mi North 8.1 mph - N/A   Clear
9:15 AM 32.0 °F 24.8 °F 30.2 °F 93% 30.31 in 4.0 mi North 8.1 mph - N/A   Clear
9:35 AM 33.8 °F 29.6 °F 30.2 °F 87% 30.31 in 4.0 mi NE 4.6 mph - N/A   Haze
9:55 AM 35.6 °F 31.7 °F 32.0 °F 87% 30.32 in 5.0 mi NNE 4.6 mph - N/A   Haze
10:15 AM 37.4 °F 34.9 °F 32.0 °F 81% 30.31 in 5.0 mi North 3.5 mph - N/A   Haze
10:35 AM 41.0 °F 39.0 °F 32.0 °F 70% 30.32 in 5.0 mi NNW 3.5 mph - N/A   Haze
10:55 AM 42.8 °F - 32.0 °F 66% 30.31 in 7.0 mi Calm Calm - N/A   Clear
11:15 AM 42.8 °F - 32.0 °F 66% 30.31 in 7.0 mi Calm Calm - N/A   Clear
11:35 AM 46.4 °F - 32.0 °F 57% 30.30 in 7.0 mi Calm Calm - N/A   Clear
11:55 AM 48.2 °F - 32.0 °F 54% 30.29 in 7.0 mi Calm Calm - N/A   Clear
12:15 PM 50.0 °F - 32.0 °F 50% 30.28 in 7.0 mi Calm Calm - N/A   Clear
12:35 PM 53.6 °F - 32.0 °F 44% 30.28 in 10.0 mi SSE 3.5 mph - N/A   Clear
12:55 PM 55.4 °F - 30.2 °F 38% 30.27 in 10.0 mi SSE 5.8 mph - N/A   Clear
1:15 PM 57.2 °F - 28.4 °F 33% 30.27 in 10.0 mi South 3.5 mph - N/A   Clear
1:35 PM 60.8 °F - 30.2 °F 31% 30.26 in 10.0 mi South 8.1 mph - N/A   Clear
1:55 PM 60.8 °F - 30.2 °F 31% 30.25 in 10.0 mi SW 6.9 mph - N/A   Clear
2:15 PM 60.8 °F - 30.2 °F 31% 30.24 in 10.0 mi SW 9.2 mph - N/A   Clear
2:35 PM 62.6 °F - 30.2 °F 30% 30.23 in 10.0 mi SW 8.1 mph - N/A   Clear
2:55 PM 64.4 °F - 26.6 °F 24% 30.21 in 10.0 mi SSW 8.1 mph - N/A   Clear
3:15 PM 64.4 °F - 26.6 °F 24% 30.20 in 10.0 mi SSW 11.5 mph 16.1 mph N/A   Clear
3:35 PM 66.2 °F - 26.6 °F 23% 30.19 in 10.0 mi WSW 11.5 mph 16.1 mph N/A   Clear
3:55 PM 68.0 °F - 23.0 °F 18% 30.18 in 10.0 mi South 13.8 mph 18.4 mph N/A   Clear
4:15 PM 68.0 °F - 24.8 °F 20% 30.17 in 10.0 mi South 11.5 mph 18.4 mph N/A   Clear
4:35 PM 68.0 °F - 23.0 °F 18% 30.16 in 10.0 mi South 15.0 mph 19.6 mph N/A   Clear
4:55 PM 68.0 °F - 21.2 °F 17% 30.15 in 10.0 mi South 15.0 mph 19.6 mph N/A   Clear
5:15 PM 68.0 °F - 23.0 °F 18% 30.15 in 10.0 mi SSW 19.6 mph 24.2 mph N/A   Clear
5:35 PM 66.2 °F - 21.2 °F 18% 30.14 in 10.0 mi South 17.3 mph 24.2 mph N/A   Clear
5:55 PM 66.2 °F - 21.2 °F 18% 30.13 in 10.0 mi South 16.1 mph - N/A   Clear
6:15 PM 66.2 °F - 19.4 °F 17% 30.12 in 10.0 mi South 17.3 mph 20.7 mph N/A   Clear
6:35 PM 64.4 °F - 19.4 °F 18% 30.12 in 10.0 mi South 16.1 mph 20.7 mph N/A   Clear
6:55 PM 64.4 °F - 19.4 °F 18% 30.11 in 10.0 mi South 10.4 mph - N/A   Clear
7:15 PM 62.6 °F - 26.6 °F 26% 30.10 in 10.0 mi SSE 15.0 mph 20.7 mph N/A   Clear
7:35 PM 60.8 °F - 26.6 °F 27% 30.10 in 10.0 mi SSE 12.7 mph 18.4 mph N/A   Clear
7:55 PM 59.0 °F - 26.6 °F 29% 30.10 in 10.0 mi SSE 12.7 mph 16.1 mph N/A   Clear
8:15 PM 55.4 °F - 26.6 °F 33% 30.11 in 10.0 mi SE 10.4 mph - N/A   Clear
8:35 PM 55.4 °F - 26.6 °F 33% 30.11 in 10.0 mi SE 9.2 mph - N/A   Clear
8:55 PM 53.6 °F - 26.6 °F 35% 30.12 in 10.0 mi SE 9.2 mph - N/A   Clear
9:15 PM 51.8 °F - 26.6 °F 38% 30.12 in 10.0 mi SE 9.2 mph - N/A   Clear
9:35 PM 51.8 °F - 24.8 °F 35% 30.13 in 10.0 mi SSE 10.4 mph - N/A   Clear
9:55 PM 51.8 °F - 23.0 °F 33% 30.13 in 10.0 mi SSE 12.7 mph - N/A   Clear
10:15 PM 51.8 °F - 24.8 °F 35% 30.13 in 10.0 mi SSE 13.8 mph 18.4 mph N/A   Clear
10:35 PM 51.8 °F - 24.8 °F 35% 30.12 in 10.0 mi SSE 15.0 mph - N/A   Clear
10:55 PM 51.8 °F - 26.6 °F 38% 30.12 in 10.0 mi SSE 13.8 mph - N/A   Clear
11:15 PM 51.8 °F - 26.6 °F 38% 30.12 in 10.0 mi SSE 15.0 mph 20.7 mph N/A   Clear
11:35 PM 51.8 °F - 26.6 °F 38% 30.11 in 10.0 mi SSE 15.0 mph - N/A   Clear
11:55 PM 50.0 °F - 26.6 °F 40% 30.10 in 10.0 mi SSE 16.1 mph - N/A   Clear